Asiasat 9

operational
NORAD ID: 42942 Int'l Des: 2017-057 Owner: ASIA Country: HK
HEOCIRCULARGSOGEO

About Asiasat 9

Description loading...

Live Position

Loading 3D Globe...

Upcoming Passes

Altitude History

Altitude vs Time

uPlot chart will show altitude changes over time

Two-Line Element Set

1 42942U 17057A 26063.26502859 -.00000372 00000-0 00000+0 0 9997
2 42942 0.0132 136.8068 0002348 205.2259 37.4929 1.00271918 30807
Epoch: Mar 4, 2026 • Age: 16 hours

Current Status

Altitude 35796.0 km
Velocity 3.07 km/s
Sub-Earth Point 0.01°N, 122.12°E
Launch Date Sep 28, 2017
Age 8.4 years
Type other

Technical Details

Classification Payload
Mass 6141.00 kg
Dry Mass 3500.00 kg
Total Mass 6141.00 kg
Length 7.00 m
Diameter 3.00 m
Span 27.00 m
Shape Box + 2 pan
Manufacturer SSL
Bus Type LS-1300
Phase Status In Orbit
Owner/State ASIA/HK

Large Constellations

Loading constellations...